Regional Weather Roundup
Issued by NWS Goodland, KS

Home | Current Version | Previous Version | Graphics & Text | Print | Product List | Glossary On
Versions: 1 2 3 4 5 6 7 8 9 10 11 12 13 14 15 16 17 18 19 20 21 22 23 24 25 26 27 28 29 30 31 32 33 34 35 36 37 38 39 40 41 42 43 44 45 46 47 48 49 50
000
ASUS43 KGLD 250208
RWRGLD

GOODLAND FORECAST AREA HOURLY WEATHER ROUNDUP
NATIONAL WEATHER SERVICE GOODLAND KS
700 PM MST WED DEC 24 2014

...OFFICIAL OBSERVATIONS...

CITY           SKY/WX    TMP DP  RH WIND       PRES   REMARKS
GOODLAND KS    MOCLDY    37  18  46 SW16      29.64F
HILL CITY KS   CLEAR     35  14  42 SW10      29.68F
IMPERIAL NEB   MOCLDY    34  24  67 SW8       29.60F
MCCOOK NEB     PTCLDY    35  23  61 SW8       29.63F
AKRON CO       CLOUDY    34  23  64 S9        29.56F
BURLINGTON CO  CLOUDY    36  18  48 SW16      29.63F
LIMON CO       CLOUDY    32  14  47 S7        29.63F
$$

...UNOFFICIAL OBSERVATIONS...

CITY           SKY/WX    TMP DP  RH WIND       PRES   REMARKS
COLBY KS       CLEAR     36  25  64 SW8       29.65F
GOVE KS          N/A     36  32  85 MISG        N/A
NORTON KS      CLEAR     34  16  47 SW10      29.65S
SHARON SPRINGS   N/A     34  17  50 SW9         N/A
TRIBUNE KS     MOCLDY    34  19  55 S9        29.69F
KIT CARSON CO    N/A     33  19  56 MISG        N/A
YUMA CO          N/A     35  21  57 S15         N/A
$$


USA.gov is the U.S. government's official web portal to all federal, state and local government web resources and services.